Location: Croisilles
(50.1998°N, 2.8793°E)
Time: 01:50:43
(UTC+00:00)

SAR-Lupe-4 - Pass Details

Date: 21 January 2021
Orbit: 480 x 485 km, 98.2° (Epoch: 23 February)

Event Time Altitude Azimuth Distance (km) Brightness Sun altitude
Exits shadow 18:05:49 34° 75° (ENE) 811 4.1 -16.0°
Maximum altitude 18:06:24 37° 99° (E) 769 4.1 -16.0°
Drops below altitude 10° 18:09:44 10° 168° (SSE) 1,658 6.3 -16.6°
Sets 18:11:53 0° 177° (S) 2,531 7.3 -16.9°
